Stations météo

réclame
Mon MeteoGroup
Cassley, Grande-Bretagne (99003): Température de l'air & dewpoint: 16.04.2019 15:00:00 - 22.04.2019 15:00:00 (BST)Cassley, Grande-Bretagne (99003): Quantités de précipitations: 16.04.2019 15:00:00 - 22.04.2019 15:00:00 (BST)
Date & Time tt [°C] td [°C] rr [mm]
22.04.2019 15:00:00 22,2 2,5 0,0
22.04.2019 14:00:00 21,2 1,5 0,0
22.04.2019 13:00:00 21,1 5,0 0,0
22.04.2019 12:00:00 20,3 5,0 0,0
22.04.2019 11:00:00 18,2 6,4 0,0
22.04.2019 10:00:00 14,9 6,8 0,0
22.04.2019 09:00:00 12,0 7,1 0,0
22.04.2019 08:00:00 9,1 7,0 0,0
22.04.2019 07:00:00 7,4 6,2 0,0
22.04.2019 06:00:00 6,8 5,4 0,0
22.04.2019 05:00:00 8,2 6,6 0,0
22.04.2019 04:00:00 8,4 6,1 0,0
22.04.2019 03:00:00 9,9 7,7 0,0
22.04.2019 02:00:00 10,5 8,1 0,0
22.04.2019 01:00:00 14,3 9,4 0,0
22.04.2019 00:00:00 14,7 9,6 0,0
21.04.2019 23:00:00 14,1 10,3 0,0
21.04.2019 22:00:00 12,3 9,3 0,0
21.04.2019 21:00:00 14,1 10,3 0,0
21.04.2019 20:00:00 15,9 10,2 0,0
21.04.2019 19:00:00 17,9 10,2 0,0
21.04.2019 18:00:00 18,2 10,2 0,0
21.04.2019 17:00:00 18,5 10,2 0,0
21.04.2019 16:00:00 18,7 11,2 0,0
21.04.2019 15:00:00 18,7 11,5 0,0
21.04.2019 14:00:00 17,6 11,7 0,0
21.04.2019 13:00:00 18,6 11,9 0,0
21.04.2019 12:00:00 14,7 11,0 0,0
21.04.2019 11:00:00 11,7 9,6 0,0
21.04.2019 10:00:00 9,7 8,9 0,0
21.04.2019 09:00:00 9,0 8,3 0,2
21.04.2019 08:00:00 8,4 7,7 0,0
21.04.2019 07:00:00 8,3 7,6 0,2
21.04.2019 06:00:00 8,3 7,6 0,0
21.04.2019 05:00:00 8,4 7,7 0,2
21.04.2019 04:00:00 8,4 7,7 0,0
21.04.2019 03:00:00 8,5 7,7 0,0
21.04.2019 02:00:00 8,8 8,0 1,0
21.04.2019 01:00:00 8,9 8,0 1,8
21.04.2019 00:00:00 9,1 8,1 1,4
20.04.2019 23:00:00 9,3 8,6 0,0
20.04.2019 22:00:00 9,2 8,4 0,0
20.04.2019 21:00:00 10,0 9,1 0,0
20.04.2019 20:00:00 10,6 9,9 0,6
20.04.2019 19:00:00 10,9 9,7 0,8
20.04.2019 18:00:00 11,8 9,6 0,2
20.04.2019 17:00:00 12,8 8,6 0,0
20.04.2019 16:00:00 13,2 7,3 0,0
20.04.2019 15:00:00 13,7 7,8 0,0
20.04.2019 14:00:00 13,3 7,9 0,0
20.04.2019 13:00:00 14,1 8,5 0,0
20.04.2019 12:00:00 14,4 8,5 0,0
20.04.2019 11:00:00 14,3 8,9 0,0
20.04.2019 10:00:00 14,2 9,0 0,0
20.04.2019 09:00:00 14,3 9,5 0,0
20.04.2019 08:00:00 13,3 9,0 0,0
20.04.2019 07:00:00 12,6 8,6 0,0
20.04.2019 06:00:00 10,3 8,2 0,0
20.04.2019 05:00:00 10,6 7,8 0,0
20.04.2019 04:00:00 12,2 8,2 0,0
20.04.2019 03:00:00 10,5 6,3 0,0
20.04.2019 02:00:00 13,0 6,8 0,0
20.04.2019 01:00:00 12,6 6,1 0,0
20.04.2019 00:00:00 12,3 4,9 0,0
19.04.2019 23:00:00 12,6 4,6 0,0
19.04.2019 22:00:00 12,3 5,6 0,0
19.04.2019 21:00:00 13,3 5,5 0,0
19.04.2019 20:00:00 17,9 5,7 0,0
19.04.2019 19:00:00 18,4 6,0 0,0
19.04.2019 18:00:00 20,0 5,1 0,0
19.04.2019 17:00:00 20,9 7,1 0,0
19.04.2019 16:00:00 22,0 3,4 0,0
19.04.2019 15:00:00 22,0 5,2 0,0
19.04.2019 14:00:00 20,3 7,3 0,0
19.04.2019 13:00:00 19,2 8,4 0,0
19.04.2019 12:00:00 14,5 6,5 0,0
19.04.2019 11:00:00 12,4 6,1 0,0
19.04.2019 10:00:00 8,6 5,9 0,0
19.04.2019 09:00:00 6,2 4,9 0,0
19.04.2019 08:00:00 5,1 4,5 0,0
19.04.2019 07:00:00 4,1 3,7 0,0
19.04.2019 06:00:00 2,8 2,1 0,0
19.04.2019 05:00:00 3,1 2,3 0,0
19.04.2019 04:00:00 3,3 2,6 0,0
19.04.2019 03:00:00 3,8 2,8 0,0
19.04.2019 02:00:00 4,6 2,9 0,0
19.04.2019 01:00:00 5,5 3,7 0,0
19.04.2019 00:00:00 6,1 3,9 0,0
18.04.2019 23:00:00 8,5 5,0 0,0
18.04.2019 22:00:00 8,6 4,3 0,0
18.04.2019 21:00:00 10,8 5,9 0,0
18.04.2019 20:00:00 11,0 6,3 0,0
18.04.2019 19:00:00 13,8 6,9 0,0
18.04.2019 18:00:00 13,3 6,4 0,0
18.04.2019 17:00:00 15,1 6,4 0,0
18.04.2019 16:00:00 16,7 5,2 0,0
18.04.2019 15:00:00 17,0 3,6 0,0
18.04.2019 14:00:00 15,4 5,9 0,0
18.04.2019 13:00:00 14,0 5,9 0,0
18.04.2019 12:00:00 12,6 4,9 0,0
18.04.2019 11:00:00 9,3 4,2 0,0
18.04.2019 10:00:00 6,6 3,6 0,0
18.04.2019 09:00:00 4,7 3,0 0,0
18.04.2019 08:00:00 3,2 2,4 0,0
18.04.2019 07:00:00 1,9 1,4 0,0
18.04.2019 06:00:00 1,0 0,3 0,0
18.04.2019 05:00:00 1,5 1,0 0,0
18.04.2019 04:00:00 1,2 0,6 0,0
18.04.2019 03:00:00 1,2 0,5 0,0
18.04.2019 02:00:00 1,6 0,7 0,0
18.04.2019 01:00:00 2,3 0,9 0,0
18.04.2019 00:00:00 3,1 1,7 0,0
17.04.2019 23:00:00 3,6 1,5 0,0
17.04.2019 22:00:00 4,6 1,2 0,0
17.04.2019 21:00:00 7,3 3,9 0,0
17.04.2019 20:00:00 8,8 4,3 0,0
17.04.2019 19:00:00 12,0 3,8 0,0
17.04.2019 18:00:00 12,4 3,9 0,0
17.04.2019 17:00:00 12,7 2,9 0,0
17.04.2019 16:00:00 12,2 2,9 0,0
17.04.2019 15:00:00 9,6 3,9 0,0
17.04.2019 14:00:00 10,0 4,8 0,0
17.04.2019 13:00:00 8,7 4,4 0,0
17.04.2019 12:00:00 8,1 4,0 0,0
17.04.2019 11:00:00 8,2 4,5 0,0
17.04.2019 10:00:00 6,6 4,4 0,0
17.04.2019 09:00:00 5,8 4,2 0,0
17.04.2019 08:00:00 5,1 3,9 0,0
17.04.2019 07:00:00 4,7 3,6 0,0
17.04.2019 06:00:00 4,6 3,5 0,0
17.04.2019 05:00:00 4,8 4,0 0,2
17.04.2019 04:00:00 4,6 3,7 0,2
17.04.2019 03:00:00 4,8 3,8 0,6
17.04.2019 02:00:00 5,0 3,6 0,4
17.04.2019 01:00:00 5,2 3,8 0,0
17.04.2019 00:00:00 5,9 3,5 0,0
16.04.2019 23:00:00 6,2 3,6 0,0
16.04.2019 22:00:00 6,3 4,0 0,0
16.04.2019 21:00:00 6,7 4,2 0,0
16.04.2019 20:00:00 7,3 4,1 0,0
16.04.2019 19:00:00 7,9 4,2 0,0
16.04.2019 18:00:00 8,3 4,6 0,0
16.04.2019 17:00:00 8,7 4,8 0,0
16.04.2019 16:00:00 9,3 5,1 0,0
16.04.2019 15:00:00 9,2 5,1 0,0

tt = Température de l'air
td = dewpoint
rr = Quantités de précipitations

stations d'obs. à proximité